Location: Carrigahorig
(53.0625°N, 8.1439°W)
Time: 23:46:07
(UTC+00:00)

SL-08 R/B - Pass Details

Date: 15 May 2026
Orbit: 666 x 729 km, 98.5° (Epoch: 9 June)

Event Time Altitude Azimuth Distance (km) Brightness Sun altitude
Rises 21:18:22 0° 15° (NNE) 3,140 7.1 -7.0°
Reaches altitude 10° 21:20:40 10° 16° (NNE) 2,207 6.3 -7.3°
Maximum altitude 21:25:31 87° 106° (ESE) 714 3.4 -7.8°
Drops below altitude 10° 21:30:14 10° 196° (SSW) 2,150 5.5 -8.2°
Sets 21:32:27 0° 197° (SSW) 3,053 6.3 -8.5°
